Location: Enikep?du
(16.5133°N, 80.7066°E)
Time: 11:47:24
(UTC+00:00)

GPS 2-15 Rocket1 - Pass Details

Date: 15 May 2026
Orbit: 606 x 651 km, 19.8° (Epoch: 9 June)

Event Time Altitude Azimuth Distance (km) Brightness Sun altitude
Rises 14:22:41 0° 249° (WSW) 2,944 7.2 -18.9°
Reaches altitude 10° 14:25:05 10° 246° (WSW) 2,036 6.2 -19.4°
Maximum altitude 14:29:49 63° 165° (SSE) 716 3.1 -20.4°
Enters shadow 14:30:46 51° 114° (ESE) 809 3.2 -20.6°
